Date String (YYYY-MM-DD hh:mm:ss) UTC,Instrument flags,absolute air pressure of the measurement (hPa),sample flow rate (lpm),inlet stack bypass flow (lpm),air temperature of the measurement (°C),ambient temperature measured by the external sensor (°C),aerosol sample conditioner tube jacket temperature (°C),OPC LED temperature (°C),internal box temperature (°C),relative humidity of the measurement (%),span deviation,mass concentration of particles derived from Lorenz-Mie calculation of OPC scattering (μg/m³),mass concentration of particles derived from Lorenz-Mie calculation of OPC scattering (μg/m³),mass concentration of particles derived from Lorenz-Mie calculation of OPC scattering (μg/m³)
DateTimeUTC,F1_M11,P_M11,Q1_M11,Q2_M11,T1_M11,T2_M11,T3_M11,T4_M11,T5_M11,U1_M11,ZSPAN_M11,X0_M11,X2_M11,X1_M11
2023-10-16 20:00:00,SystemResetWarning,0835.4,4.99,000.00,028.3,024.7,000.0,036.8,029.8,14.0,0000.0,0012.22,0003.83,0003.01
2023-10-16 20:01:00,SystemResetWarning,0835.4,5.00,000.00,028.3,025.2,000.0,036.8,029.8,14.2,0000.0,0011.73,0003.81,0003.03
2023-10-16 20:02:00,SystemResetWarning,0835.3,5.00,000.00,028.3,025.6,000.0,036.8,029.9,14.3,0000.0,0011.93,0003.81,0003.06
2023-10-16 20:03:00,SystemResetWarning,0835.3,5.00,000.00,028.3,026.0,000.0,036.8,029.9,14.2,0000.0,0011.35,0003.76,0003.06
2023-10-16 20:04:00,SystemResetWarning,0835.3,5.00,000.00,028.3,026.3,000.0,036.8,030.0,14.1,0000.0,0011.11,0003.71,0003.00
2023-10-16 20:05:00,SystemResetWarning,0835.3,5.00,000.00,028.3,026.6,000.0,036.8,030.1,14.1,0000.0,0011.03,0003.69,0002.96
2023-10-16 20:06:00,SystemResetWarning,0835.4,5.00,000.00,028.4,026.8,000.0,036.8,030.2,14.1,0000.0,0010.81,0003.64,0002.92
2023-10-16 20:07:00,SystemResetWarning,0835.3,5.01,000.00,028.4,027.1,000.0,036.9,030.2,14.2,0000.0,0010.27,0003.62,0002.89
2023-10-16 20:08:00,SystemResetWarning,0835.3,5.00,000.00,028.5,027.3,000.0,036.9,030.3,14.2,0000.0,0009.99,0003.56,0002.83
2023-10-16 20:09:00,SystemResetWarning,0835.3,4.99,000.00,028.5,027.4,000.0,036.9,030.3,14.1,0000.0,0010.01,0003.49,0002.75
2023-10-16 20:10:00,SystemResetWarning,0835.3,4.99,000.00,028.6,027.5,000.0,036.9,030.4,14.3,0000.0,0010.26,0003.41,0002.69
2023-10-16 20:11:00,SystemResetWarning,0835.3,5.00,000.00,028.6,027.6,000.0,036.9,030.5,14.3,0000.0,0009.51,0003.36,0002.65
2023-10-16 20:12:00,SystemResetWarning,0835.2,5.00,000.00,028.6,026.5,000.0,036.9,030.4,14.0,0000.0,0009.50,0003.34,0002.60
2023-10-16 20:13:00,SystemResetWarning,0835.2,5.00,000.00,028.5,024.7,000.0,036.9,030.1,14.0,0000.0,0008.90,0003.30,0002.55
2023-10-16 20:14:00,SystemResetWarning,0835.2,5.00,000.00,028.5,024.3,000.0,036.8,030.0,14.0,0000.0,0009.53,0003.25,0002.51
2023-10-16 20:15:00,SystemResetWarning,0835.3,5.01,000.00,028.4,024.6,000.0,036.8,029.9,14.0,0000.0,0009.94,0003.22,0002.48
2023-10-16 20:16:00,SystemResetWarning,0835.3,5.00,000.00,028.3,025.0,000.0,036.8,029.8,14.2,0000.0,0009.79,0003.15,0002.43
2023-10-16 20:17:00,SystemResetWarning,0835.3,5.00,000.00,028.3,025.4,000.0,036.8,029.8,14.2,0000.0,0009.49,0003.14,0002.38
2023-10-16 20:18:00,SystemResetWarning,0835.3,5.00,000.00,028.3,025.8,000.0,036.8,029.9,14.2,0000.0,0009.69,0003.15,0002.34
2023-10-16 20:19:00,SystemResetWarning,0835.3,5.00,000.00,028.3,026.2,000.0,036.8,030.0,14.2,0000.0,0009.77,0003.13,0002.31
2023-10-16 20:20:00,SystemResetWarning,0835.3,5.00,000.00,028.3,026.5,000.0,036.8,030.1,14.2,0000.0,0009.36,0003.12,0002.29
2023-10-16 20:21:00,SystemResetWarning,0835.3,5.00,000.00,028.4,026.8,000.0,036.8,030.1,14.1,0000.0,0008.75,0003.15,0002.28
2023-10-16 20:22:00,SystemResetWarning,0835.3,5.00,000.00,028.4,027.0,000.0,036.8,030.2,14.2,0000.0,0009.58,0003.18,0002.31
2023-10-16 20:23:00,SystemResetWarning,0835.3,5.00,000.00,028.4,027.2,000.0,036.8,030.2,14.3,0000.0,0009.91,0003.18,0002.33
2023-10-16 20:24:00,SystemResetWarning,0835.3,5.00,000.00,028.5,027.3,000.0,036.9,030.3,14.1,0000.0,0010.45,0003.20,0002.35
2023-10-16 20:25:00,SystemResetWarning,0835.2,5.00,000.00,028.5,027.5,000.0,036.9,030.4,14.0,0000.0,0009.46,0003.19,0002.35
2023-10-16 20:26:00,SystemResetWarning,0835.2,4.98,000.00,028.6,027.6,000.0,036.9,030.4,14.1,0000.0,0008.97,0003.20,0002.36
2023-10-16 20:27:00,SystemResetWarning,0835.2,5.00,000.00,028.6,027.3,000.0,036.9,030.5,14.0,0000.0,0010.27,0003.23,0002.38
2023-10-16 20:28:00,SystemResetWarning,0835.1,5.00,000.00,028.6,025.5,000.0,036.9,030.3,14.1,0000.0,0010.91,0003.22,0002.41
2023-10-16 20:29:00,SystemResetWarning,0835.1,5.01,000.00,028.5,024.4,000.0,036.8,030.0,14.1,0000.0,0012.16,0003.21,0002.44
2023-10-16 20:30:00,SystemResetWarning,0835.1,5.02,000.00,028.4,024.5,000.0,036.8,029.9,14.1,0000.0,0012.33,0003.24,0002.47
2023-10-16 20:31:00,SystemResetWarning,0835.1,5.00,000.00,028.3,024.9,000.0,036.8,029.8,14.2,0000.0,0012.56,0003.25,0002.51
2023-10-16 20:32:00,SystemResetWarning,0835.1,5.00,000.00,028.3,025.3,000.0,036.8,029.9,14.2,0000.0,0013.06,0003.26,0002.53
2023-10-16 20:33:00,SystemResetWarning,0835.1,5.00,000.00,028.3,025.7,000.0,036.8,029.9,14.3,0000.0,0013.16,0003.28,0002.53
2023-10-16 20:34:00,SystemResetWarning,0835.0,5.00,000.00,028.3,026.1,000.0,036.8,030.0,14.3,0000.0,0012.81,0003.28,0002.53
2023-10-16 20:35:00,SystemResetWarning,0835.1,5.00,000.00,028.3,026.4,000.0,036.8,030.0,14.5,0000.0,0012.41,0003.29,0002.52
2023-10-16 20:36:00,SystemResetWarning,0835.1,5.00,000.00,028.4,026.7,000.0,036.8,030.1,14.5,0000.0,0012.32,0003.32,0002.52
2023-10-16 20:37:00,SystemResetWarning,0835.1,5.00,000.00,028.4,027.0,000.0,036.8,030.2,14.1,0000.0,0012.34,0003.32,0002.52
2023-10-16 20:38:00,SystemResetWarning,0835.1,5.00,000.00,028.4,027.1,000.0,036.8,030.2,14.1,0000.0,0011.60,0003.30,0002.51
2023-10-16 20:39:00,SystemResetWarning,0835.1,5.00,000.00,028.5,027.3,000.0,036.9,030.3,14.0,0000.0,0010.71,0003.29,0002.49
2023-10-16 20:40:00,SystemResetWarning,0835.1,5.00,000.00,028.5,027.5,000.0,036.9,030.4,14.3,0000.0,0009.00,0003.28,0002.46
2023-10-16 20:41:00,SystemResetWarning,0835.1,4.99,000.00,028.6,027.6,000.0,036.9,030.4,14.2,0000.0,0008.66,0003.31,0002.47
2023-10-16 20:42:00,SystemResetWarning,0835.1,4.98,000.00,028.6,027.2,000.0,036.9,030.5,14.1,0000.0,0008.77,0003.33,0002.47
2023-10-16 20:43:00,SystemResetWarning,0835.2,5.00,000.00,028.6,025.3,000.0,036.9,030.3,14.1,0000.0,0008.20,0003.28,0002.45
2023-10-16 20:44:00,SystemResetWarning,0835.1,5.00,000.00,028.5,024.3,000.0,036.8,030.1,14.1,0000.0,0007.75,0003.24,0002.44
2023-10-16 20:45:00,SystemResetWarning,0835.0,5.01,000.00,028.4,024.4,000.0,036.8,029.9,14.1,0000.0,0007.34,0003.21,0002.44
2023-10-16 20:46:00,SystemResetWarning,0835.0,5.01,000.00,028.3,024.8,000.0,036.8,029.8,14.0,0000.0,0007.80,0003.21,0002.42
2023-10-16 20:47:00,SystemResetWarning,0835.0,5.00,000.00,028.3,025.2,000.0,036.8,029.8,14.0,0000.0,0007.71,0003.18,0002.43
2023-10-16 20:48:00,SystemResetWarning,0835.0,5.00,000.00,028.3,025.7,000.0,036.8,029.9,14.1,0000.0,0007.73,0003.18,0002.42
2023-10-16 20:49:00,SystemResetWarning,0835.0,5.00,000.00,028.3,026.1,000.0,036.8,030.0,14.2,0000.0,0007.56,0003.16,0002.41
2023-10-16 20:50:00,SystemResetWarning,0835.0,4.99,000.00,028.3,026.4,000.0,036.8,030.0,14.2,0000.0,0007.57,0003.16,0002.41
2023-10-16 20:51:00,SystemResetWarning,0835.0,5.00,000.00,028.3,026.7,000.0,036.8,030.1,14.1,0000.0,0007.74,0003.16,0002.42
2023-10-16 20:52:00,SystemResetWarning,0835.0,5.00,000.00,028.4,026.9,000.0,036.8,030.2,14.0,0000.0,0008.73,0003.17,0002.41
2023-10-16 20:53:00,SystemResetWarning,0835.0,5.00,000.00,028.4,027.1,000.0,036.8,030.2,13.9,0000.0,0009.00,0003.14,0002.40
2023-10-16 20:54:00,SystemResetWarning,0835.0,5.00,000.00,028.5,027.3,000.0,036.9,030.3,13.9,0000.0,0009.35,0003.15,0002.41
2023-10-16 20:55:00,SystemResetWarning,0835.0,5.00,000.00,028.5,027.5,000.0,036.9,030.4,14.0,0000.0,0009.46,0003.18,0002.42
2023-10-16 20:56:00,SystemResetWarning,0835.0,4.99,000.00,028.6,027.5,000.0,036.9,030.4,14.0,0000.0,0009.27,0003.18,0002.41
2023-10-16 20:57:00,SystemResetWarning,0835.0,4.98,000.00,028.6,026.1,000.0,036.9,030.3,13.9,0000.0,0008.76,0003.16,0002.40
2023-10-16 20:58:00,SystemResetWarning,0834.9,5.01,000.00,028.5,024.5,000.0,036.8,030.1,14.0,0000.0,0008.73,0003.16,0002.39
2023-10-16 20:59:00,SystemResetWarning,0834.9,5.01,000.00,028.4,024.3,000.0,036.7,029.9,14.0,0000.0,0008.78,0003.17,0002.37
